STARLINK-31966, 59944

Orbit data source: Space-Track

STARLINK-31966, 59944 is a payload satellite owned by SpaceX/Seattle (US) in LEO that was launched on Sat, 01 Jun 2024 UTC via an FALCON 9 launch vehicle from the Air Force Eastern Test Range (AFETR). Payload-class satellites include a variety of spacecraft equipped with specific instruments for various scientific and technological missions. These include communications satellites like Starlink; space stations such as the ISS; scientific satellites like the Hubble; Earth observation satellites from companies like Planet Labs, Umbra, and HawkEye 360; GPS; miniature CubeSats for education and research; and military/defense satellites.

Loading next visibility...
Identifier
59944, 2024-106Y
Orbit
LEO
Country
Flag of USUS
Related business
Manufacturer
SpaceX/Seattle
Mission
Operational spacecraft
Bus & Motor
STARLINK V2M, Unknown motor
Mass
730 kg wet, ~700 kg dry
Launch date (UTC)
2024-06-01 (1 year ago)
Launch vehicle
FALCON 9
Launch site
Air Force Eastern Test Range (AFETR)
Object type
Payload
Rocket body
Debris
Shape & HBR
Unknown
Radar Cross Section
Large (>1 m²)

Expand to show TLE details & history
Last TLE update: 15 hours ago

TLE from 15 hours ago
0 STARLINK-31966
1 59944U 24106Y   25258.40557714  .00002145  00000-0  87428-4 0  9994
2 59944  43.0025 242.5817 0000576 289.2068  70.8722 15.27585813 73763
Epoch: 2025-09-15T09:44Z
TLE epoch observation values (Epoch: 2025-09-15T09:44:01.864Z)
Latitude
0.00001°
Longitude
101.96325°
Altitude
482.678 km
Speed
7.626 km/s
True Right ascension
16h 10m 19s
True Declination
0° 00' 00"
Sunlit
Object was in daylight at epoch
Visualization orbit readout
Latitude
Unknown
Longitude
Unknown
Altitude
Unknown
Speed
Unknown
Apparent Right ascension
Unknown
Apparent Declination
Unknown
Sunlit
N/A
Visualization observer readout
Local Sidereal Time
17:00:42
Azimuth
Unknown
Elevation
Unknown
Doppler factor
Unknown
Orbital elements
Apogee altitude
485.372 km
Perigee altitude
484.581 km
Semi-major axis
6,863.113 km
Eccentricity
0.00006
Inclination
43.0025°
RAAN
242.5817°
Arg. of periapsis
289.2068°
True anomaly
70.87844°
Mean anomaly
70.8722°
Eccentric anomaly
70.87532°
Mean motion
3.81734 °/min
Orbital period
94.31 mins
BSTAR
0.000087428
Loading maneuver chart data...
Computing Atmospheric mass density...
Loading historical data...
Loading historical data...
Loading historical data...
Loading historical data...
Loading historical data...
Loading historical data...
Loading historical data...

Documentation

Showing up to 5 results
|